CAPE
0 0 0 0 0 0 0 0 0 0 0 0 0 0 0 0 0 0 0 27 250 219 122 115 479 615 633 534 330 380 337 140 84 25 6 3 0 0 0 81 298 298 345 344 263 84 25 8 10
0 0 0 0 0 0 0 0 0 0 0 0 0 0 0 7 36 19 72 136 349 195 127 77 338 602 625 459 408 422 302 165 31 9 2 8 0 0 0 14 158 244 266 228 162 46 8 6 6
0 0 0 0 0 0 0 0 0 0 0 0 67 11 54 105 69 104 152 304 357 253 132 51 355 603 578 380 294 298 209 51 43 32 7 12 6 1 0 0 82 172 221 187 102 15 9 3 2
0 0 0 0 0 0 0 0 0 0 0 4 61 183 11 0 148 147 332 322 411 241 82 50 372 374 419 95 107 90 65 40 21 24 9 25 71 50 57 136 52 131 163 112 57 32 10 2 1
0 0 0 0 0 0 0 0 0 0 4 27 133 235 188 105 97 258 516 574 403 187 64 79 251 199 83 16 49 49 20 24 30 38 46 33 78 115 129 137 88 116 115 104 54 35 8 2 0
0 0 0 0 0 0 0 0 0 0 0 6 162 290 225 55 343 395 667 468 334 182 147 56 12 40 74 41 30 47 57 40 51 85 79 87 74 129 142 109 96 116 118 92 69 34 13 3 0
0 0 0 0 0 0 0 0 0 0 0 0 46 415 199 139 441 721 662 518 274 196 78 31 9 4 12 20 31 51 131 60 118 172 172 91 100 132 204 152 152 87 87 97 80 44 31 3 0
0 0 0 0 0 0 0 0 0 0 0 97 220 290 427 516 576 800 604 505 287 177 107 0 5 6 11 10 6 16 45 81 157 82 14 25 30 39 54 54 125 129 108 95 81 85 41 1 0
0 0 0 0 0 0 0 0 0 0 0 292 103 112 118 624 748 786 668 449 273 194 70 3 4 4 11 8 7 29 37 71 43 20 2 11 65 41 24 21 44 61 53 126 92 91 44 2 0
0 0 0 0 0 0 0 0 0 0 212 1 57 163 241 667 888 838 749 599 299 172 43 0 2 12 6 3 16 36 40 78 47 52 26 10 43 44 25 15 6 18 47 112 110 76 3 0 0
0 0 0 0 0 0 0 0 0 0 0 0 45 28 657 720 888 888 875 599 501 203 92 0 0 7 3 12 13 28 25 57 83 58 43 19 24 42 31 44 22 38 34 70 92 52 26 20 4
0 0 0 0 0 0 0 0 0 0 0 0 160 99 193 627 843 851 911 789 685 588 279 33 0 0 1 13 11 19 26 24 45 47 37 46 44 59 29 38 38 31 50 57 69 84 58 39 18
0 0 0 0 0 0 0 10 0 0 0 114 207 193 243 342 339 354 413 650 648 720 613 232 61 15 9 5 12 5 8 9 17 40 28 29 40 45 24 24 13 1 13 41 57 57 56 39 20
0 0 0 0 0 0 0 0 0 0 0 0 0 0 0 0 0 0 0 0 524 726 597 464 235 58 15 11 11 1 1 2 10 11 12 7 16 41 4 9 2 0 0 5 25 42 46 48 43
0 0 0 0 0 0 0 0 0 0 0 0 0 0 0 0 0 0 0 0 0 181 507 689 433 169 89 4 4 21 1 0 0 2 7 5 7 7 7 16 5 0 0 0 0 2 5 29 19
0 0 0 0 0 0 0 0 0 0 0 0 0 0 0 0 0 0 0 0 0 0 148 163 422 364 256 174 13 4 8 2 0 0 3 8 9 10 16 11 12 1 0 0 0 0 0 0 1
0 0 0 0 0 0 0 0 0 0 0 0 0 0 0 0 0 0 0 0 0 0 0 0 45 223 366 200 107 16 5 10 0 0 1 10 10 5 5 12 16 4 0 0 0 0 0 0 0
0 0 0 0 0 0 0 0 0 0 0 0 0 0 0 0 0 0 0 0 0 0 0 0 0 1 82 209 77 58 15 2 8 2 0 1 6 3 5 8 12 3 3 1 0 0 0 0 0
0 0 0 0 0 0 0 0 0 0 0 0 0 0 0 0 0 0 0 0 0 0 0 0 0 0 0 22 112 18 12 1 2 12 1 0 0 1 3 11 11 4 5 5 1 0 0 0 0
0 0 0 0 0 0 0 0 0 0 0 0 0 0 0 0 0 0 0 0 0 0 0 0 0 0 0 1 26 115 128 32 2 5 4 0 0 0 0 1 9 6 7 5 5 1 1 0 0
0 0 1 0 0 0 0 0 0 0 0 0 0 0 0 0 0 0 0 0 0 0 0 0 0 0 0 0 0 132 126 36 26 6 2 3 0 1 5 0 1 9 7 6 8 5 0 0 0
0 0 0 1 0 1 0 0 0 0 0 0 0 0 0 0 0 0 0 0 0 0 0 0 0 0 0 0 0 0 209 166 95 105 32 4 3 1 9 0 0 13 15 11 14 5 1 0 0
0 0 0 0 0 0 0 0 0 0 0 0 0 0 0 0 0 0 0 0 0 0 0 0 0 0 0 0 0 0 0 111 259 130 50 19 4 3 1 1 0 1 0 0 7 4 4 0 0
0 0 0 0 0 0 0 0 0 0 0 0 0 0 0 1 2 0 0 0 0 0 0 0 0 0 0 0 0 0 0 0 63 83 60 6 4 2 4 2 3 1 4 3 1 0 0 0 0
0 0 0 0 0 0 0 0 0 0 0 0 0 0 0 1 0 1 1 1 1 2 2 1 1 0 0 0 0 0 0 0 0 66 86 48 2 0 1 1 1 1 1 6 2 2 0 0 0
2 0 0 0 0 0 0 0 0 0 0 0 0 0 0 0 0 1 2 3 3 4 5 3 1 1 3 2 1 0 0 0 0 0 92 90 28 7 2 2 1 3 3 1 1 2 1 0 0
0 5 4 6 0 1 0 0 0 0 0 0 0 0 0 0 0 0 2 2 2 2 5 4 2 2 3 3 3 2 1 0 0 0 0 61 86 38 18 2 3 1 1 1 1 1 1 1 2
3 1 2 3 1 0 0 0 0 0 0 0 0 0 0 0 0 0 0 1 0 1 3 2 2 3 3 3 3 3 1 2 1 0 0 1 52 11 3 7 28 14 2 1 1 1 1 1 0
0 0 0 0 0 3 1 0 0 0 0 0 0 0 0 0 0 0 0 1 0 1 1 3 3 4 3 4 3 5 5 2 3 6 0 1 60 37 9 37 58 19 6 1 1 1 1 1 1
1 1 1 0 0 2 0 0 0 0 0 0 0 0 0 0 0 0 0 1 0 0 1 3 2 5 3 2 4 5 4 3 3 1 1 1 0 0 0 0 0 0 0 0 0 1 1 1 1
CIN
0 0 0 0 0 0 0 0 0 0 0 0 0 0 0 0 0 0 0 -224 -79 -28 -36 -28 -1 0 0 0 0 0 0 -1 -51 0 0 0 0 0 0 -125 -3 0 0 0 0 -32 -5 0 0
0 0 0 0 0 0 0 0 0 0 0 0 0 0 0 -23 -248 -196 -258 -188 -62 -45 -38 -50 -6 0 0 0 0 0 0 -3 -1 0 0 0 0 0 0 -43 -43 -4 -3 -5 -11 0 0 0 0
0 0 0 0 0 0 0 0 0 0 0 0 -63 -26 -90 -113 -293 -267 -240 -147 -77 -57 -56 -57 -8 0 0 0 -1 -2 -5 -91 0 0 0 0 0 0 0 0 -124 -34 -20 -15 -30 0 0 0 0
0 0 0 0 0 0 0 0 0 0 0 -89 -82 -42 -182 0 -246 -240 -174 -138 -75 -74 -81 -79 -5 0 0 -34 -30 -32 -43 -4 0 0 -1 0 -106 0 0 -96 -76 -62 -38 -49 0 -7 0 0 0
0 0 0 0 0 0 0 0 0 0 -39 -51 -70 -51 -115 -249 -288 -204 -121 -90 -93 -90 -96 -43 -14 -13 -40 -28 -72 -66 0 0 -1 0 -36 0 -193 -148 -120 -94 -92 -86 -71 -43 0 -13 0 0 0
0 0 0 0 0 0 0 0 0 0 0 -48 -46 -51 -136 -312 -172 -160 -89 -89 -84 -94 -58 -59 -33 -73 -53 -75 -2 -63 -44 -45 -125 -62 -127 -137 -157 -137 -125 -82 -65 -124 -74 0 0 -8 -22 0 0
0 0 0 0 0 0 0 0 0 0 0 0 -84 -23 -173 -256 -145 -79 -66 -54 -68 -59 -80 -91 0 -4 -10 -20 -18 -57 -4 -42 -15 -15 -20 -105 -137 -129 -71 -114 -92 0 0 -18 0 -2 -6 0 0
0 0 0 0 0 0 0 0 0 0 0 -107 -120 -14 -78 -141 -116 -49 -37 -34 -48 -55 -52 0 0 0 0 -2 -15 -12 -60 -51 -12 -69 -22 -15 -8 -17 -11 -7 -75 -141 -1 -3 0 0 -1 0 0
0 0 0 0 0 0 0 0 0 0 0 -81 -172 -182 -222 -114 -66 -43 -27 -22 -30 -40 -69 -111 0 -1 0 0 -7 -9 -9 -72 -15 -28 -11 -3 0 0 -6 -28 -16 -6 -5 -15 -1 0 0 -19 0
0 0 0 0 0 0 0 0 0 0 -18 -7 -134 -176 -178 -88 -41 -26 -17 -15 -25 -49 -98 0 0 0 0 0 -5 0 -27 -49 0 0 0 0 0 0 -20 -45 -54 -35 -12 -1 0 -2 -17 0 0
0 0 0 0 0 0 0 0 0 0 0 0 -132 -209 -60 -48 -28 -12 0 -3 -1 -21 -47 0 0 0 0 0 0 0 0 -53 -32 -19 0 0 0 0 -2 -1 -12 -2 -5 0 0 -4 0 0 0
0 0 0 0 0 0 0 0 0 0 0 -16 -110 -168 -99 -20 -9 0 0 0 0 0 -11 -67 -8 -6 -1 0 0 0 0 0 -34 0 0 0 0 0 0 0 -1 -1 0 0 0 0 0 0 0
0 0 0 0 0 0 0 -28 0 0 0 -44 -86 -83 -44 -19 -15 -8 -3 0 -1 0 0 -14 -45 -49 -74 -3 0 0 0 0 0 0 0 0 0 0 0 0 -5 0 -8 0 0 0 0 0 0
0 0 0 0 0 0 0 0 0 0 0 0 0 0 0 0 0 0 0 0 0 0 0 0 -4 -38 -18 -70 -79 0 0 0 0 0 0 0 0 0 0 -1 0 0 0 -5 0 0 0 0 0
0 0 0 0 0 0 0 0 0 0 0 0 0 0 0 0 0 0 0 0 0 -9 -1 0 0 -11 -15 -61 -79 -66 -14 0 0 0 0 0 0 0 0 0 0 0 0 0 0 0 0 0 0
0 0 0 0 0 0 0 0 0 0 0 0 0 0 0 0 0 0 0 0 0 0 -18 -14 0 0 -2 0 -85 -108 -83 -11 0 0 0 0 0 0 0 0 0 0 0 0 0 0 0 0 0
0 0 0 0 0 0 0 0 0 0 0 0 0 0 0 0 0 0 0 0 0 0 0 0 -22 -2 0 -14 -4 -31 -71 -41 0 0 0 0 0 0 0 0 0 0 0 0 0 0 0 0 0
0 0 0 0 0 0 0 0 0 0 0 0 0 0 0 0 0 0 0 0 0 0 0 0 0 -12 -19 -5 -5 -11 -35 -4 -3 0 0 0 0 0 0 0 0 0 0 0 0 0 0 0 0
0 0 0 0 0 0 0 0 0 0 0 0 0 0 0 0 0 0 0 0 0 0 0 0 0 0 0 -65 0 -16 -25 0 -1 -15 0 0 0 0 0 0 0 0 0 0 0 0 0 0 0
0 0 0 0 0 0 0 0 0 0 0 0 0 0 0 0 0 0 0 0 0 0 0 0 0 0 0 0 -4 -15 -1 -7 -38 -37 0 0 0 0 0 0 -2 0 0 0 -3 0 0 0 0
0 0 0 0 0 0 0 0 0 0 0 0 0 0 0 0 0 0 0 0 0 0 0 0 0 0 0 0 0 -2 -7 -1 -11 -11 0 0 0 0 0 0 -10 -1 0 0 0 0 0 0 0
0 0 0 0 0 0 0 0 0 0 0 0 0 0 0 0 0 0 0 0 0 0 0 0 0 0 0 0 0 0 0 0 -12 -6 -20 0 0 0 -58 0 0 -2 -2 0 0 0 0 0 0
0 0 0 0 0 0 0 0 0 0 0 0 0 0 0 0 0 0 0 0 0 0 0 0 0 0 0 0 0 0 0 -2 0 -3 -1 -54 -42 0 0 0 0 0 0 -1 -1 0 0 0 0
0 0 0 0 0 0 0 0 0 0 0 0 0 0 0 0 0 0 0 0 0 0 0 0 0 0 0 0 0 0 0 0 0 -1 -3 -48 0 0 0 0 0 -9 0 0 0 0 0 0 0
0 0 0 0 0 0 0 0 0 0 0 0 0 0 0 0 0 0 0 0 0 0 0 0 0 0 0 0 0 0 0 0 0 -6 -5 -35 0 0 0 0 0 0 0 -94 0 0 0 0 0
0 0 0 0 0 0 0 0 0 0 0 0 0 0 0 0 0 0 0 0 0 0 0 0 0 0 0 0 0 0 0 0 0 0 -21 -23 -37 -55 0 0 0 0 0 -12 0 0 0 0 0
0 0 -1 0 0 0 0 0 0 0 0 0 0 0 0 0 0 0 0 0 0 0 0 0 0 0 0 0 0 0 0 0 0 0 0 -25 -29 -32 -27 0 0 0 0 0 0 0 0 0 0
0 0 0 0 0 0 0 0 0 0 0 0 0 0 0 0 0 0 0 0 0 0 0 0 0 0 0 0 0 0 0 0 0 0 0 0 -27 -12 -6 -64 -31 -52 0 0 0 0 0 0 0
0 0 0 0 -1 0 0 0 0 0 0 0 0 0 0 0 0 0 0 0 0 0 0 0 0 0 0 0 0 0 0 0 0 0 0 0 -9 -26 -23 -11 -11 -41 -54 0 0 0 0 0 0
0 0 0 0 0 0 0 0 0 0 0 0 0 0 0 0 0 0 0 0 0 0 0 0 0 0 0 0 0 0 0 0 0 0 0 0 0 0 0 0 0 0 0 0 0 0 0 0 0
Wind_Speed
12 9 3 4 7 6 10 6 3 5 4 2 4 2 4 5 0 4 4 4 19 19 18 18 16 17 16 17 16 15 16 16 16 14 13 11 11 10 9 12 11 11 15 20 22 23 22 20 20
8 3 4 1 8 10 11 9 9 5 3 4 5 5 4 4 4 7 12 10 20 18 17 17 14 18 18 17 16 14 15 15 14 13 12 11 10 10 9 11 10 12 17 20 23 20 20 20 19
4 2 4 4 8 14 6 10 9 1 2 2 2 2 1 4 4 12 7 18 19 17 15 14 13 18 17 16 15 14 14 12 11 13 13 11 10 10 9 9 9 10 16 19 22 19 20 19 19
3 3 3 7 12 8 11 4 3 6 2 1 0 3 4 5 7 4 17 21 18 17 16 13 14 16 17 15 14 14 14 12 12 9 10 10 8 11 7 10 10 10 15 18 20 18 18 19 19
2 2 5 7 12 3 5 6 5 5 1 1 2 5 3 4 4 11 18 18 18 17 14 16 13 14 14 15 13 13 13 13 12 10 10 8 8 11 7 9 11 10 12 17 19 18 17 18 18
3 2 5 9 6 3 5 5 7 7 5 3 2 5 5 3 7 14 15 15 17 17 14 16 13 10 12 12 12 13 12 11 12 9 8 8 10 11 9 9 12 11 10 17 19 18 17 16 17
2 3 2 4 3 1 4 9 6 9 8 6 4 3 4 4 10 12 13 12 15 14 13 15 16 13 10 10 8 10 10 10 10 9 9 7 11 10 11 9 11 11 11 15 18 17 16 16 16
1 3 4 2 2 2 7 6 3 3 4 2 5 1 5 10 12 11 11 12 12 12 13 15 14 13 13 9 7 6 8 8 8 10 9 9 10 9 9 9 8 9 8 13 17 17 15 16 15
3 4 3 2 3 3 7 6 4 3 4 3 5 5 3 15 12 11 12 9 9 9 11 12 13 13 12 11 9 7 7 7 10 10 8 11 10 9 10 8 9 9 7 9 17 16 16 13 11
3 2 3 4 6 6 10 7 7 2 4 6 4 8 6 16 13 13 13 12 9 12 8 11 12 14 11 9 9 8 7 8 8 7 9 6 8 9 7 7 9 9 8 9 15 14 13 11 9
3 3 2 2 6 9 9 7 12 2 6 10 13 4 6 12 13 14 14 14 15 13 8 10 10 12 12 10 7 5 5 5 5 8 6 6 6 7 6 6 6 6 7 6 9 11 9 7 7
2 6 5 5 7 7 6 10 7 14 10 12 11 4 3 5 7 9 12 14 16 18 16 12 12 11 12 8 8 8 6 6 6 6 7 6 5 6 6 5 5 5 5 7 7 6 6 8 7
6 5 3 8 4 5 8 5 4 14 21 11 9 8 8 7 7 5 3 8 10 16 16 15 13 12 13 11 9 7 7 6 7 7 8 6 6 7 5 5 5 4 5 5 6 6 6 7 7
1 1 7 8 5 6 5 6 2 17 19 14 14 17 16 18 15 14 16 14 8 10 12 13 14 10 9 10 12 8 7 8 7 7 8 9 7 7 7 6 5 5 5 5 5 5 6 6 5
1 2 2 17 13 5 8 4 14 18 10 14 16 14 16 17 16 15 12 13 13 10 9 12 11 12 12 11 9 8 8 8 7 7 9 10 9 8 9 6 6 5 4 5 4 4 4 4 4
1 1 2 12 17 5 6 6 16 16 10 14 14 14 14 16 17 17 16 16 15 13 10 2 8 10 11 12 9 6 8 8 5 6 7 11 10 10 9 7 6 6 5 5 5 4 4 4 4
5 4 7 2 17 5 6 3 14 13 10 13 13 13 12 13 17 17 17 15 14 13 13 15 6 6 11 10 8 9 8 8 7 4 7 11 11 10 9 8 7 7 6 6 5 5 5 5 4
5 3 3 6 10 10 11 10 10 12 13 13 13 13 13 14 16 16 16 15 14 14 12 11 10 12 9 8 7 7 7 6 6 7 6 8 8 9 9 8 9 8 7 6 6 7 5 4 4
2 1 4 2 5 5 9 9 9 11 14 15 14 14 14 15 14 16 15 14 14 14 15 15 13 13 8 5 4 4 6 7 7 7 13 11 9 8 9 8 10 10 10 9 10 8 8 5 3
3 2 5 1 6 2 5 7 6 11 12 13 13 14 14 14 13 13 14 14 14 13 13 13 14 12 9 6 5 3 4 5 8 8 11 12 14 14 9 11 11 12 9 12 11 11 7 7 6
4 7 6 4 5 1 4 4 3 2 6 11 12 12 13 14 15 16 16 15 14 15 16 13 13 12 10 11 7 4 2 2 4 7 7 12 12 11 14 13 11 12 11 11 13 12 14 8 7
3 6 5 4 4 2 2 0 6 1 1 10 13 13 13 14 14 14 16 16 15 14 13 14 13 11 9 10 8 6 7 5 6 6 7 9 13 12 15 12 12 10 9 12 10 11 11 10 9
4 8 3 1 2 3 5 5 6 0 1 11 13 13 13 13 14 15 15 14 13 13 13 12 13 12 11 10 8 6 6 5 7 7 10 10 12 14 14 14 13 12 9 10 10 11 12 10 9
10 3 1 1 1 3 1 4 6 2 3 8 11 11 12 13 13 14 14 14 14 14 13 12 13 13 13 11 11 9 7 6 5 7 7 7 7 8 13 13 12 12 11 12 11 11 11 10 7
11 3 2 3 2 2 1 5 5 4 3 6 9 10 10 10 12 14 16 16 15 15 15 13 13 13 13 13 12 11 11 10 9 8 8 8 7 6 10 12 10 9 11 12 11 11 11 11 10
6 6 3 5 4 4 1 4 4 4 2 4 4 6 8 11 11 13 14 14 15 16 15 15 14 14 13 13 12 11 11 7 7 8 6 6 7 8 9 10 10 11 11 12 11 8 9 10 11
4 4 2 2 2 4 1 2 5 5 3 4 5 7 10 11 11 13 13 12 13 14 15 14 14 13 12 13 11 11 10 10 9 11 8 6 7 5 7 10 11 10 9 10 10 8 10 10 10
4 1 1 1 5 4 1 4 3 2 3 4 5 8 10 11 12 12 11 12 12 13 13 13 13 13 13 12 10 10 11 11 11 10 9 8 6 6 8 9 11 10 9 9 9 8 9 10 9
3 1 1 1 2 3 5 2 2 3 5 6 5 7 9 11 11 11 11 11 11 12 13 12 12 12 12 12 11 10 9 10 11 9 9 8 7 8 8 7 7 5 6 5 6 8 8 8 8
4 4 3 3 1 1 3 5 3 6 6 6 6 7 8 9 9 10 10 11 11 12 13 13 12 12 11 11 10 10 10 9 9 9 9 7 7 9 8 9 9 9 9 9 8 8 8 7 7
Wind_Direction
321 325 306 258 241 239 238 217 283 207 213 130 106 222 186 36 226 10 147 117 144 151 150 156 151 145 140 131 133 137 135 135 132 131 134 131 128 130 120 91 104 108 117 117 113 107 108 110 108
324 317 215 250 245 227 226 225 220 220 48 119 130 134 175 108 71 107 140 173 154 150 151 153 146 141 138 137 138 142 139 130 136 138 144 142 141 138 133 106 102 113 125 121 112 114 115 115 112
282 309 202 218 237 240 270 222 235 89 170 238 147 344 73 96 95 150 122 158 147 146 148 147 145 145 144 144 143 131 120 135 144 147 141 143 142 143 141 131 113 123 128 126 118 121 119 118 116
316 179 167 230 230 256 254 357 307 234 168 218 174 137 113 20 145 143 147 152 146 144 146 149 141 148 154 137 129 128 137 145 155 148 147 157 161 153 149 139 130 126 137 129 122 123 122 120 118
318 255 223 237 244 270 255 279 324 298 320 118 193 134 86 62 109 145 152 155 143 144 143 155 145 144 139 144 141 148 156 151 164 150 151 150 156 146 148 141 132 120 142 133 128 127 127 126 122
166 249 230 241 237 276 263 343 290 263 307 3 223 150 96 27 152 150 145 148 145 143 147 148 139 144 148 154 156 148 151 155 151 159 157 153 146 144 119 113 131 126 129 139 134 132 129 128 125
213 207 223 245 265 303 340 332 266 283 256 288 333 208 91 134 157 149 142 142 141 144 149 150 157 149 142 149 163 157 163 161 150 147 128 136 144 138 114 109 125 123 121 145 139 136 135 134 132
287 252 212 214 237 166 2 331 325 328 278 346 359 237 157 158 157 133 124 128 136 149 147 152 158 160 164 164 137 160 165 153 139 120 118 118 119 122 117 122 114 113 109 131 143 138 139 140 137
302 249 269 17 317 38 3 353 31 339 273 35 22 337 337 146 154 131 132 132 138 146 154 154 158 164 165 175 151 136 130 116 111 120 115 143 144 146 147 104 118 110 108 129 147 144 140 138 134
353 281 56 25 8 339 331 353 338 302 107 26 19 6 166 153 159 147 157 152 149 148 160 157 164 166 177 174 156 165 145 167 163 163 165 160 155 151 141 116 101 100 104 121 145 139 131 161 152
30 38 26 42 340 331 321 358 18 349 52 3 319 288 183 166 163 162 169 172 165 153 151 162 168 170 182 172 174 175 165 171 167 165 172 162 153 154 162 145 149 143 156 132 153 143 168 171 169
108 36 0 342 327 320 341 327 62 31 4 327 326 195 319 148 150 166 183 180 174 172 167 165 176 175 183 178 189 184 184 176 171 172 171 168 171 182 172 170 160 161 168 159 165 175 177 179 181
50 7 20 353 304 304 308 31 52 21 353 5 47 63 45 61 54 48 318 185 186 179 179 179 175 181 182 191 183 193 192 186 185 176 177 175 182 187 171 174 178 169 168 171 175 175 177 182 183
120 208 28 15 16 24 313 42 316 355 341 39 54 54 53 50 41 30 12 332 225 191 190 186 182 183 178 197 192 186 193 190 192 191 182 185 187 194 181 194 187 181 183 175 177 181 182 189 198
316 198 29 21 359 33 324 93 16 347 347 45 62 63 54 44 38 37 14 1 341 314 222 191 186 194 194 187 197 196 194 194 195 194 194 194 190 200 191 200 193 185 180 178 176 175 191 197 203
10 264 322 28 5 24 318 115 8 4 31 45 42 50 49 49 43 29 19 8 0 0 335 283 191 187 209 211 197 191 205 196 185 195 195 197 197 188 204 202 200 191 185 187 189 187 193 212 217
47 41 16 57 21 336 351 48 11 17 39 49 43 36 34 31 33 24 20 12 5 4 10 359 315 246 216 209 211 206 206 210 188 184 199 200 201 193 199 207 206 190 194 200 199 198 212 210 218
6 26 38 36 18 43 66 72 42 34 47 43 38 36 30 25 21 14 10 6 7 9 12 10 0 14 289 208 209 208 194 214 202 188 188 194 206 203 209 206 199 194 198 206 207 215 211 234 235
5 13 22 51 18 56 68 68 51 44 46 36 32 27 25 20 10 14 2 358 3 12 8 3 0 4 339 321 189 226 192 196 198 198 188 183 195 201 212 214 206 198 201 206 206 208 212 208 205
42 360 29 209 13 129 127 99 82 51 49 39 25 23 17 10 11 10 1 357 0 1 4 357 354 349 350 331 325 185 185 203 205 192 193 194 202 200 208 213 212 206 204 210 207 204 201 217 189
45 13 337 306 334 74 204 181 198 124 47 41 36 25 20 11 1 358 360 358 354 356 350 348 346 340 338 332 318 232 134 165 188 201 195 202 194 211 213 212 219 218 212 207 207 206 207 211 201
292 4 302 282 230 193 274 128 199 274 73 33 24 19 13 6 1 359 354 352 352 347 341 337 337 336 334 334 336 340 225 200 201 194 199 198 206 200 210 209 216 217 224 229 216 208 212 218 212
331 327 305 297 192 210 179 259 118 148 209 9 11 10 9 4 357 352 352 350 347 346 342 336 332 333 336 337 329 323 325 242 205 196 210 203 194 201 205 208 202 206 212 224 227 221 217 215 219
326 246 191 140 240 230 101 284 137 151 9 349 1 9 6 4 354 348 351 348 347 346 344 341 338 333 335 333 329 319 310 307 232 205 208 202 204 203 209 208 213 214 215 213 213 220 217 221 224
3 317 238 205 224 8 50 267 28 130 62 358 348 359 2 0 357 352 353 349 347 346 344 342 341 335 335 329 325 322 311 302 290 228 202 198 204 204 210 210 212 210 211 218 218 215 211 211 215
2 358 24 309 326 335 321 258 85 133 98 4 345 345 348 352 354 357 355 348 343 343 344 342 341 336 334 329 323 317 309 301 296 295 258 209 208 213 209 211 220 222 218 218 220 223 219 215 217
1 35 355 274 131 259 316 220 163 180 244 324 336 334 347 346 347 352 354 351 345 343 343 341 338 334 333 329 323 317 310 303 293 293 296 243 221 224 204 208 214 218 222 221 216 217 223 217 221
339 357 262 42 336 317 328 281 348 190 292 329 333 341 342 342 346 350 350 350 348 347 345 344 342 336 333 331 329 320 313 304 294 282 269 277 216 192 209 209 221 222 220 221 219 219 228 226 228
340 332 2 335 315 326 316 85 164 245 305 315 324 329 334 341 345 345 346 348 348 352 350 347 349 344 344 338 339 338 333 321 311 266 266 248 212 201 212 218 224 229 243 254 234 231 234 226 228
290 294 295 288 177 273 300 282 169 242 284 294 289 309 327 334 344 346 346 344 352 353 351 350 353 351 348 347 352 357 359 3 7 20 14 12 85 57 69 75 71 58 43 31 38 47 39 59 60